TimeMDT,TemperatureF,Dew PointF,Humidity,Sea Level PressureIn,VisibilityMPH,Wind Direction,Wind SpeedMPH,Gust SpeedMPH,PrecipitationIn,Events,Conditions,WindDirDegrees,DateUTC
12:53 AM,28.9,10.9,47,30.09,10.0,South,5.8,-,N/A,,Clear,180,2013-03-18 06:53:00
1:53 AM,30.0,12.0,47,30.09,10.0,SW,10.4,-,N/A,,Overcast,220,2013-03-18 07:53:00
2:53 AM,28.9,12.9,51,30.09,10.0,SSW,6.9,-,N/A,,Scattered Clouds,210,2013-03-18 08:53:00
3:53 AM,26.1,12.0,55,30.11,10.0,SW,6.9,-,N/A,,Clear,220,2013-03-18 09:53:00
4:53 AM,25.0,12.0,58,30.10,10.0,WSW,6.9,-,N/A,,Clear,240,2013-03-18 10:53:00
5:53 AM,26.1,12.9,58,30.11,10.0,SSW,10.4,-,N/A,,Clear,210,2013-03-18 11:53:00
6:53 AM,25.0,12.9,60,30.12,10.0,SSW,10.4,-,N/A,,Clear,210,2013-03-18 12:53:00
7:53 AM,25.0,12.9,60,30.15,10.0,SSW,8.1,-,N/A,,Clear,210,2013-03-18 13:53:00
8:53 AM,28.0,14.0,56,30.16,10.0,SSW,8.1,-,N/A,,Clear,210,2013-03-18 14:53:00
9:53 AM,32.0,15.1,50,30.16,10.0,SW,11.5,-,N/A,,Clear,230,2013-03-18 15:53:00
10:53 AM,36.0,16.0,44,30.17,10.0,WSW,13.8,-,N/A,,Clear,250,2013-03-18 16:53:00
11:53 AM,39.0,16.0,39,30.16,10.0,WSW,18.4,28.8,N/A,,Clear,240,2013-03-18 17:53:00
12:53 PM,42.1,18.0,38,30.13,10.0,WSW,19.6,28.8,N/A,,Clear,250,2013-03-18 18:53:00
1:53 PM,44.1,19.0,37,30.11,10.0,WSW,20.7,29.9,N/A,,Clear,240,2013-03-18 19:53:00
2:53 PM,45.0,19.0,36,30.10,10.0,West,28.8,34.5,N/A,,Clear,260,2013-03-18 20:53:00
3:53 PM,46.0,19.0,34,30.08,10.0,West,21.9,38.0,N/A,,Clear,260,2013-03-18 21:53:00
4:53 PM,46.0,17.1,31,30.08,10.0,West,24.2,35.7,N/A,,Clear,260,2013-03-18 22:53:00
5:53 PM,45.0,17.1,33,30.09,10.0,WSW,24.2,34.5,N/A,,Clear,250,2013-03-18 23:53:00
6:53 PM,43.0,16.0,34,30.10,10.0,West,20.7,27.6,N/A,,Clear,270,2013-03-19 00:53:00
7:53 PM,39.0,17.1,41,30.11,10.0,West,15.0,-,N/A,,Clear,260,2013-03-19 01:53:00
8:53 PM,35.1,17.1,48,30.13,10.0,WSW,9.2,-,N/A,,Clear,250,2013-03-19 02:53:00
9:53 PM,35.1,16.0,46,30.15,10.0,SE,3.5,-,N/A,,Clear,140,2013-03-19 03:53:00
10:53 PM,34.0,17.1,50,30.16,10.0,SSE,6.9,-,N/A,,Clear,160,2013-03-19 04:53:00
11:53 PM,30.9,17.1,57,30.17,10.0,South,4.6,-,N/A,,Clear,180,2013-03-19 05:53:00